Time,TemperatureF,DewpointF,PressureIn,WindDirection,WindDirectionDegrees,WindSpeedMPH,WindSpeedGustMPH,Humidity,HourlyPrecipIn,Conditions,Clouds,dailyrainin,SoftwareType,DateUTC
2013-05-15 00:22:00,57.0,55.0,30.10,SSW,213,0.0,-999.0,94,-99.99,,,0.00,,2013-05-15 05:22:00,
2013-05-15 00:32:00,56.0,55.0,30.10,SSW,213,0.0,-999.0,95,-99.99,,,0.00,,2013-05-15 05:32:00,
2013-05-15 00:52:00,56.0,55.0,30.09,SSW,213,0.0,-999.0,95,-99.99,,,0.00,,2013-05-15 05:52:00,
2013-05-15 01:02:00,56.0,55.0,30.09,SSW,213,0.0,-999.0,95,-99.99,,,0.00,,2013-05-15 06:02:00,
2013-05-15 01:21:00,55.0,54.0,30.09,SSW,213,0.0,-999.0,95,-99.99,,,0.00,,2013-05-15 06:21:00,
2013-05-15 01:32:00,55.0,54.0,30.09,SSW,213,0.0,-999.0,95,-99.99,,,0.00,,2013-05-15 06:32:00,
2013-05-15 01:52:00,55.0,54.0,30.09,SSW,213,0.0,-999.0,96,-99.99,,,0.00,,2013-05-15 06:52:00,
2013-05-15 02:01:00,55.0,54.0,30.09,SSW,213,0.0,-999.0,96,-99.99,,,0.00,,2013-05-15 07:01:00,
2013-05-15 02:21:00,55.0,54.0,30.09,SSW,213,0.0,-999.0,96,-99.99,,,0.00,,2013-05-15 07:21:00,
2013-05-15 02:32:00,54.0,53.0,30.10,SSW,213,0.0,-999.0,96,-99.99,,,0.00,,2013-05-15 07:32:00,
2013-05-15 03:02:00,55.0,54.0,30.10,SSW,213,0.0,-999.0,97,-99.99,,,0.00,,2013-05-15 08:02:00,
2013-05-15 03:12:00,55.0,54.0,30.10,SSW,213,0.0,-999.0,97,-99.99,,,0.00,,2013-05-15 08:12:00,
2013-05-15 03:21:00,55.0,54.0,30.11,SSW,213,0.0,-999.0,97,-99.99,,,0.00,,2013-05-15 08:21:00,
2013-05-15 03:32:00,54.0,53.0,30.11,SSW,213,0.0,-999.0,96,-99.99,,,0.00,,2013-05-15 08:32:00,
2013-05-15 03:42:00,54.0,53.0,30.11,SSW,213,0.0,-999.0,97,-99.99,,,0.00,,2013-05-15 08:42:00,
2013-05-15 03:53:00,54.0,53.0,30.11,SSW,213,0.0,-999.0,97,-99.99,,,0.00,,2013-05-15 08:53:00,
2013-05-15 04:01:00,54.0,53.0,30.11,SSW,213,0.0,-999.0,97,-99.99,,,0.00,,2013-05-15 09:01:00,
2013-05-15 04:11:00,54.0,53.0,30.11,SSW,213,0.0,-999.0,97,-99.99,,,0.00,,2013-05-15 09:11:00,
2013-05-15 04:21:00,54.0,53.0,30.11,SSW,213,0.0,-999.0,97,-99.99,,,0.00,,2013-05-15 09:21:00,
2013-05-15 04:33:00,54.0,53.0,30.12,SSW,213,0.0,-999.0,97,-99.99,,,0.00,,2013-05-15 09:33:00,
2013-05-15 04:42:00,54.0,53.0,30.12,SSW,213,0.0,-999.0,97,-99.99,,,0.00,,2013-05-15 09:42:00,
2013-05-15 04:53:00,54.0,53.0,30.11,SSW,213,0.0,-999.0,97,-99.99,,,0.00,,2013-05-15 09:53:00,
2013-05-15 05:02:00,53.0,52.0,30.12,SSW,213,0.0,-999.0,97,-99.99,,,0.00,,2013-05-15 10:02:00,
2013-05-15 05:12:00,53.0,52.0,30.12,SSW,213,0.0,-999.0,97,-99.99,,,0.00,,2013-05-15 10:12:00,
2013-05-15 05:22:00,53.0,52.0,30.12,SSW,213,0.0,-999.0,97,-99.99,,,0.00,,2013-05-15 10:22:00,
2013-05-15 05:32:00,53.0,52.0,30.12,SSW,213,0.0,-999.0,97,-99.99,,,0.00,,2013-05-15 10:32:00,
2013-05-15 05:42:00,53.0,52.0,30.12,SSW,213,0.0,-999.0,97,-99.99,,,0.00,,2013-05-15 10:42:00,
2013-05-15 05:52:00,53.0,52.0,30.13,SSW,213,0.0,-999.0,98,-99.99,,,0.00,,2013-05-15 10:52:00,
2013-05-15 06:08:00,53.0,52.0,30.13,SSW,213,0.0,-999.0,98,-99.99,,,0.00,,2013-05-15 11:08:00,
2013-05-15 06:17:00,53.0,52.0,30.13,SSW,213,0.0,-999.0,98,-99.99,,,0.00,,2013-05-15 11:17:00,
2013-05-15 06:26:00,53.0,52.0,30.14,SSW,213,0.0,-999.0,98,-99.99,,,0.00,,2013-05-15 11:26:00,
2013-05-15 06:39:00,53.0,52.0,30.14,SSW,213,0.0,-999.0,98,-99.99,,,0.00,,2013-05-15 11:39:00,
2013-05-15 06:50:00,53.0,52.0,30.14,SSW,213,0.0,-999.0,98,-99.99,,,0.00,,2013-05-15 11:50:00,
2013-05-15 07:06:00,56.0,56.0,30.16,SSW,213,0.0,-999.0,99,-99.99,,,0.00,,2013-05-15 12:06:00,
2013-05-15 07:13:00,56.0,56.0,30.16,SSW,213,0.0,-999.0,99,-99.99,,,0.00,,2013-05-15 12:13:00,
2013-05-15 07:27:00,58.0,58.0,30.16,SSW,213,0.0,-999.0,99,-99.99,,,0.00,,2013-05-15 12:27:00,
2013-05-15 07:35:00,60.0,60.0,30.16,SSW,213,0.0,-999.0,99,-99.99,,,0.00,,2013-05-15 12:35:00,
2013-05-15 07:46:00,60.0,60.0,30.16,SSW,213,0.0,-999.0,99,-99.99,,,0.00,,2013-05-15 12:46:00,
2013-05-15 07:57:00,62.0,62.0,30.16,SSW,213,0.0,-999.0,99,-99.99,,,0.00,,2013-05-15 12:57:00,
2013-05-15 08:07:00,62.0,62.0,30.16,SSW,213,0.0,-999.0,99,-99.99,,,0.00,,2013-05-15 13:07:00,
2013-05-15 08:25:00,65.0,63.0,30.14,SSE,162,0.0,-999.0,92,-99.99,,,0.00,,2013-05-15 13:25:00,
2013-05-15 08:48:00,66.0,62.0,30.14,SSE,162,0.0,-999.0,88,-99.99,,,0.00,,2013-05-15 13:48:00,
2013-05-15 08:58:00,69.0,62.0,30.13,SW,214,1.0,-999.0,79,-99.99,,,0.00,,2013-05-15 13:58:00,
2013-05-15 09:05:00,70.0,61.0,30.13,WSW,251,1.0,-999.0,74,-99.99,,,0.00,,2013-05-15 14:05:00,
2013-05-15 09:13:00,70.0,61.0,30.13,WSW,251,1.0,-999.0,74,-99.99,,,0.00,,2013-05-15 14:13:00,
2013-05-15 09:25:00,72.0,62.0,30.12,WSW,245,1.0,-999.0,70,-99.99,,,0.00,,2013-05-15 14:25:00,
2013-05-15 09:36:00,73.0,61.0,30.12,NW,307,2.0,-999.0,66,-99.99,,,0.00,,2013-05-15 14:36:00,
2013-05-15 09:45:00,73.0,61.0,30.12,NW,307,2.0,-999.0,66,-99.99,,,0.00,,2013-05-15 14:45:00,
2013-05-15 09:53:00,74.0,61.0,30.11,West,272,4.0,-999.0,63,-99.99,,,0.00,,2013-05-15 14:53:00,
2013-05-15 10:08:00,75.0,62.0,30.11,WSW,256,2.0,-999.0,63,-99.99,,,0.00,,2013-05-15 15:08:00,
2013-05-15 10:15:00,75.0,62.0,30.11,WSW,256,2.0,-999.0,63,-99.99,,,0.00,,2013-05-15 15:15:00,
2013-05-15 10:27:00,75.0,62.0,30.11,WSW,246,4.0,-999.0,63,-99.99,,,0.00,,2013-05-15 15:27:00,
2013-05-15 10:36:00,76.0,62.0,30.11,West,266,2.0,-999.0,62,-99.99,,,0.00,,2013-05-15 15:36:00,
2013-05-15 10:47:00,76.0,62.0,30.11,West,266,2.0,-999.0,62,-99.99,,,0.00,,2013-05-15 15:47:00,
2013-05-15 11:00:00,77.0,60.0,30.11,West,279,4.0,-999.0,56,-99.99,,,0.00,,2013-05-15 16:00:00,
2013-05-15 11:08:00,78.0,63.0,30.10,WNW,289,2.0,-999.0,61,-99.99,,,0.00,,2013-05-15 16:08:00,
2013-05-15 11:20:00,79.0,59.0,30.10,NNW,330,3.0,-999.0,50,-99.99,,,0.00,,2013-05-15 16:20:00,
2013-05-15 11:27:00,79.0,59.0,30.10,NNW,330,3.0,-999.0,50,-99.99,,,0.00,,2013-05-15 16:27:00,
2013-05-15 11:34:00,79.0,60.0,30.10,NE,43,5.0,-999.0,53,-99.99,,,0.00,,2013-05-15 16:34:00,
2013-05-15 11:47:00,79.0,60.0,30.10,NE,43,5.0,-999.0,53,-99.99,,,0.00,,2013-05-15 16:47:00,
2013-05-15 11:53:00,80.0,60.0,30.09,SW,227,5.0,-999.0,50,-99.99,,,0.00,,2013-05-15 16:53:00,
2013-05-15 12:08:00,80.0,61.0,30.09,WSW,237,4.0,-999.0,53,-99.99,,,0.00,,2013-05-15 17:08:00,
2013-05-15 12:17:00,80.0,61.0,30.09,WSW,237,4.0,-999.0,53,-99.99,,,0.00,,2013-05-15 17:17:00,
2013-05-15 12:26:00,81.0,62.0,30.08,West,259,4.0,-999.0,52,-99.99,,,0.00,,2013-05-15 17:26:00,
2013-05-15 12:35:00,80.0,60.0,30.07,SSW,210,5.0,-999.0,50,-99.99,,,0.00,,2013-05-15 17:35:00,
2013-05-15 12:45:00,80.0,60.0,30.07,SSW,210,5.0,-999.0,50,-99.99,,,0.00,,2013-05-15 17:45:00,
2013-05-15 12:58:00,81.0,64.0,30.07,South,178,2.0,-999.0,56,-99.99,,,0.00,,2013-05-15 17:58:00,
2013-05-15 13:14:00,81.0,61.0,30.07,SW,222,4.0,-999.0,50,-99.99,,,0.00,,2013-05-15 18:14:00,
2013-05-15 13:26:00,82.0,59.0,30.07,WSW,254,5.0,-999.0,46,-99.99,,,0.00,,2013-05-15 18:26:00,
2013-05-15 13:35:00,82.0,56.0,30.06,SW,220,5.0,-999.0,41,-99.99,,,0.00,,2013-05-15 18:35:00,
2013-05-15 13:46:00,82.0,56.0,30.06,SW,220,5.0,-999.0,41,-99.99,,,0.00,,2013-05-15 18:46:00,
2013-05-15 13:54:00,83.0,59.0,30.06,SSW,213,4.0,-999.0,44,-99.99,,,0.00,,2013-05-15 18:54:00,
2013-05-15 14:08:00,83.0,56.0,30.05,West,266,4.0,-999.0,40,-99.99,,,0.00,,2013-05-15 19:08:00,
2013-05-15 14:14:00,83.0,56.0,30.05,West,266,4.0,-999.0,40,-99.99,,,0.00,,2013-05-15 19:14:00,
2013-05-15 14:28:00,83.0,59.0,30.04,SW,229,5.0,-999.0,44,-99.99,,,0.00,,2013-05-15 19:28:00,
2013-05-15 14:36:00,83.0,58.0,30.04,WSW,241,5.0,-999.0,43,-99.99,,,0.00,,2013-05-15 19:36:00,
2013-05-15 14:44:00,83.0,58.0,30.04,WSW,241,5.0,-999.0,43,-99.99,,,0.00,,2013-05-15 19:44:00,
2013-05-15 14:56:00,83.0,61.0,30.03,WSW,240,3.0,-999.0,48,-99.99,,,0.00,,2013-05-15 19:56:00,
2013-05-15 15:06:00,84.0,58.0,30.02,SW,219,5.0,-999.0,42,-99.99,,,0.00,,2013-05-15 20:06:00,
2013-05-15 15:17:00,84.0,58.0,30.02,SW,219,5.0,-999.0,42,-99.99,,,0.00,,2013-05-15 20:17:00,
2013-05-15 15:27:00,84.0,60.0,30.01,West,260,4.0,-999.0,44,-99.99,,,0.00,,2013-05-15 20:27:00,
2013-05-15 15:37:00,84.0,59.0,30.00,WSW,253,4.0,-999.0,43,-99.99,,,0.00,,2013-05-15 20:37:00,
2013-05-15 15:46:00,84.0,59.0,30.00,WSW,253,4.0,-999.0,43,-99.99,,,0.00,,2013-05-15 20:46:00,
2013-05-15 15:57:00,84.0,59.0,30.00,WSW,253,4.0,-999.0,43,-99.99,,,0.00,,2013-05-15 20:57:00,
2013-05-15 16:07:00,84.0,57.0,29.98,SW,228,5.0,-999.0,40,-99.99,,,0.00,,2013-05-15 21:07:00,
2013-05-15 16:39:00,85.0,59.0,29.98,WSW,241,5.0,-999.0,41,-99.99,,,0.00,,2013-05-15 21:39:00,
2013-05-15 16:48:00,85.0,59.0,29.98,WSW,241,5.0,-999.0,41,-99.99,,,0.00,,2013-05-15 21:48:00,
2013-05-15 17:00:00,85.0,59.0,29.97,SSW,193,4.0,-999.0,41,-99.99,,,0.00,,2013-05-15 22:00:00,
2013-05-15 17:08:00,85.0,58.0,29.96,West,274,6.0,-999.0,40,-99.99,,,0.00,,2013-05-15 22:08:00,
2013-05-15 17:16:00,85.0,58.0,29.96,West,274,6.0,-999.0,40,-99.99,,,0.00,,2013-05-15 22:16:00,
2013-05-15 17:27:00,85.0,59.0,29.95,WSW,245,4.0,-999.0,42,-99.99,,,0.00,,2013-05-15 22:27:00,
2013-05-15 17:38:00,85.0,59.0,29.95,West,277,2.0,-999.0,41,-99.99,,,0.00,,2013-05-15 22:38:00,
2013-05-15 17:47:00,85.0,59.0,29.95,West,277,2.0,-999.0,41,-99.99,,,0.00,,2013-05-15 22:47:00,
2013-05-15 17:59:00,83.0,60.0,29.95,SSW,206,4.0,-999.0,46,-99.99,,,0.00,,2013-05-15 22:59:00,
2013-05-15 18:06:00,82.0,60.0,29.94,SW,226,2.0,-999.0,48,-99.99,,,0.00,,2013-05-15 23:06:00,
2013-05-15 18:14:00,82.0,60.0,29.94,SW,226,2.0,-999.0,48,-99.99,,,0.00,,2013-05-15 23:14:00,
2013-05-15 18:27:00,82.0,60.0,29.95,SW,216,2.0,-999.0,48,-99.99,,,0.00,,2013-05-15 23:27:00,
2013-05-15 18:37:00,82.0,64.0,29.95,SW,222,1.0,-999.0,55,-99.99,,,0.00,,2013-05-15 23:37:00,
2013-05-15 19:00:00,80.0,62.0,29.94,WSW,243,1.0,-999.0,55,-99.99,,,0.00,,2013-05-16 00:00:00,
2013-05-15 19:05:00,77.0,63.0,29.95,WSW,243,0.0,-999.0,61,-99.99,,,0.00,,2013-05-16 00:05:00,
2013-05-15 19:16:00,77.0,63.0,29.95,WSW,243,0.0,-999.0,61,-99.99,,,0.00,,2013-05-16 00:16:00,
2013-05-15 19:25:00,75.0,64.0,29.96,WSW,243,0.0,-999.0,68,-99.99,,,0.00,,2013-05-16 00:25:00,
2013-05-15 19:35:00,73.0,62.0,29.96,WSW,243,0.0,-999.0,69,-99.99,,,0.00,,2013-05-16 00:35:00,
2013-05-15 19:47:00,72.0,62.0,29.96,WSW,243,0.0,-999.0,71,-99.99,,,0.00,,2013-05-16 00:47:00,
2013-05-15 19:58:00,72.0,62.0,29.96,WSW,243,0.0,-999.0,71,-99.99,,,0.00,,2013-05-16 00:58:00,
2013-05-15 20:15:00,69.0,61.0,29.98,WSW,243,0.0,-999.0,77,-99.99,,,0.00,,2013-05-16 01:15:00,
2013-05-15 20:27:00,69.0,61.0,29.98,WSW,243,0.0,-999.0,77,-99.99,,,0.00,,2013-05-16 01:27:00,
2013-05-15 20:36:00,65.0,59.0,29.99,WSW,243,0.0,-999.0,81,-99.99,,,0.00,,2013-05-16 01:36:00,
2013-05-15 20:55:00,64.0,59.0,30.00,WSW,243,0.0,-999.0,85,-99.99,,,0.00,,2013-05-16 01:55:00,
2013-05-15 21:07:00,63.0,59.0,30.01,WSW,243,0.0,-999.0,86,-99.99,,,0.00,,2013-05-16 02:07:00,
2013-05-15 21:36:00,62.0,59.0,30.02,WSW,243,0.0,-999.0,89,-99.99,,,0.00,,2013-05-16 02:36:00,
2013-05-15 22:07:00,61.0,58.0,30.03,WSW,243,0.0,-999.0,91,-99.99,,,0.00,,2013-05-16 03:07:00,
2013-05-15 22:25:00,61.0,59.0,30.03,WSW,243,0.0,-999.0,92,-99.99,,,0.00,,2013-05-16 03:25:00,
2013-05-15 22:54:00,60.0,58.0,30.03,WSW,243,0.0,-999.0,92,-99.99,,,0.00,,2013-05-16 03:54:00,
2013-05-15 23:02:00,60.0,58.0,30.03,WSW,243,0.0,-999.0,93,-99.99,,,0.00,,2013-05-16 04:02:00,
2013-05-15 23:23:00,60.0,58.0,30.02,WSW,243,0.0,-999.0,93,-99.99,,,0.00,,2013-05-16 04:23:00,
2013-05-15 23:33:00,60.0,58.0,30.02,WSW,243,0.0,-999.0,93,-99.99,,,0.00,,2013-05-16 04:33:00,
2013-05-15 23:53:00,59.0,57.0,30.01,WSW,243,0.0,-999.0,93,-99.99,,,0.00,,2013-05-16 04:53:00,